Location: Asheville, NC
(35.6000°N, 82.5500°W)
Time: 00:06:23
(UTC-04:00)

Vanguard 1 Rocket - Pass Details

Date: 10 February 2018
Orbit: 652 x 4225 km, 34.3° (Epoch: 20 May)

Event Time Altitude Azimuth Distance (km) Brightness Sun altitude
Rises 23:04:43 0° 209° (SSW) 7,030 11.9 -58.9°
Reaches altitude 10° 23:09:21 10° 203° (SSW) 6,406 11.5 -59.7°
Enters shadow 23:09:41 11° 202° (SSW) 6,364 11.5 -59.7°
Exits shadow 23:51:59 11° 78° (ENE) 6,852 11.7 -65.4°
Drops below altitude 10° 23:52:29 10° 78° (ENE) 6,918 11.7 -65.5°
Sets 23:57:37 0° 72° (ENE) 7,617 12.1 -66.0°
